Temp
22 22 23 22 23 24 25 26 26 26 26 27 26 26 23 22 19 18 20 25 29 34 38 36 38 41 43 43 44 44 43 44 43 43 44 45 45 45 46 48 51 51 52 51 51 50 51 52 51 52 53 54 54 53 53 54 54 54 54 54 55 59 63 61 62 62 62 62 62 61 62 64 64 64
22 23 23 23 23 24 25 25 26 26 26 26 26 26 26 25 21 21 20 23 30 32 36 38 38 40 40 42 42 43 43 43 43 43 43 44 44 45 45 47 49 51 51 51 50 50 50 51 51 51 52 54 54 54 54 54 54 54 53 54 54 57 60 61 60 60 60 61 61 61 62 62 62 62
22 21 21 22 23 25 24 25 25 26 26 25 25 25 25 25 25 24 24 21 28 35 33 37 40 41 40 40 41 42 42 42 42 42 43 44 43 43 44 45 47 50 51 50 50 50 50 50 51 51 52 53 54 54 54 54 54 54 53 54 54 55 58 59 60 59 60 60 61 62 62 62 61 61
21 20 20 21 22 23 24 23 24 24 24 24 24 24 24 25 27 27 25 23 25 34 35 36 38 39 39 39 39 40 41 42 41 41 42 43 42 43 43 44 45 47 49 50 49 50 50 50 50 50 51 52 53 54 54 54 53 52 53 54 54 53 56 60 60 60 60 61 62 62 63 63 62 61
20 20 19 19 21 22 21 21 22 22 23 23 24 24 25 25 26 26 25 23 26 33 38 36 36 38 39 38 38 39 40 40 41 41 42 42 42 42 42 43 43 45 47 49 49 49 49 49 49 49 50 51 52 53 53 53 52 53 52 51 52 54 54 58 59 59 60 61 63 63 63 63 63 62
20 19 17 18 19 21 20 20 20 22 22 23 23 23 23 23 24 27 25 25 26 29 35 35 37 37 39 38 37 38 39 39 39 39 40 41 41 41 42 43 43 43 45 47 48 49 49 49 49 49 49 49 51 52 51 52 52 52 51 50 50 51 54 55 58 58 59 61 62 63 63 63 63 63
19 17 16 16 18 19 19 20 20 22 21 22 21 22 23 23 24 26 27 26 25 29 32 35 34 35 37 37 38 39 40 40 40 40 40 40 40 41 42 43 43 43 44 46 48 49 49 49 49 49 48 49 49 51 50 49 50 50 49 49 49 49 51 51 53 59 58 59 62 63 63 63 63 63
17 15 14 15 17 18 17 17 18 20 21 21 21 21 22 23 24 26 27 27 27 30 32 33 34 35 35 35 38 38 38 38 38 39 40 40 39 39 40 43 43 43 44 46 47 47 48 48 49 48 48 48 48 48 48 48 48 48 48 48 48 48 48 49 50 56 57 59 60 62 63 63 63 62
17 15 14 15 15 15 15 15 16 18 19 20 20 20 22 23 25 25 26 26 28 29 31 33 35 35 35 35 36 37 36 35 36 36 36 38 38 38 39 41 43 42 44 44 45 46 47 47 47 48 48 48 48 48 48 47 47 47 47 46 46 48 48 49 49 52 54 55 58 59 60 60 60 59
17 15 14 15 15 14 13 14 16 17 18 19 20 20 21 23 24 24 25 26 28 30 31 33 33 34 34 35 35 35 36 35 35 35 36 36 36 36 34 36 41 42 42 42 44 44 44 45 46 47 47 48 48 48 47 47 46 45 45 46 46 46 47 48 49 48 52 53 54 55 57 57 56 56
16 16 15 14 14 14 14 14 16 17 18 19 20 21 22 23 22 22 23 25 27 30 31 32 33 34 35 35 35 36 36 36 36 35 34 34 35 35 35 35 37 39 41 41 42 43 44 43 44 45 46 47 47 47 46 46 46 45 46 46 46 46 46 48 48 48 48 51 52 53 54 54 55 55
16 16 15 15 15 14 15 17 18 18 18 20 20 22 22 22 21 22 23 25 27 29 31 32 32 33 33 34 35 36 35 35 35 36 35 34 34 34 34 33 36 36 37 38 40 41 42 42 43 44 44 45 45 45 45 45 44 44 46 46 47 47 47 48 48 49 47 48 49 50 52 52 53 54
16 16 16 15 15 18 21 22 22 22 23 21 20 21 21 21 21 21 22 24 25 25 29 31 32 32 32 33 34 34 34 33 33 35 34 34 34 35 34 34 34 34 35 36 38 38 40 40 41 42 42 44 44 43 43 42 42 44 46 47 47 47 47 48 48 48 48 48 48 49 49 51 52 52
16 16 16 16 20 19 21 21 22 23 24 24 24 21 21 20 20 20 21 22 23 23 25 30 32 32 32 33 33 34 35 34 34 34 34 34 33 34 34 34 34 34 36 35 35 36 38 39 38 40 41 43 42 43 42 43 43 43 45 47 47 47 47 47 48 47 47 47 48 49 50 49 50 51
14 15 15 16 17 18 19 20 22 23 23 24 24 24 24 24 21 20 20 21 21 21 23 27 30 30 31 32 33 33 33 34 35 35 35 35 34 34 34 32 33 35 35 34 34 35 36 38 38 38 39 41 41 42 43 44 43 44 45 46 47 47 47 47 48 48 47 47 47 48 49 50 49 50
14 14 14 15 16 16 18 19 19 20 23 23 23 23 23 23 24 24 22 20 20 21 22 24 27 28 28 31 32 32 32 33 33 34 34 34 34 34 34 33 33 34 34 34 34 33 34 36 37 37 38 39 40 42 43 44 45 46 46 46 46 46 47 47 47 47 48 47 47 47 48 48 48 48
14 14 13 14 15 16 20 20 19 20 20 20 21 21 22 22 22 23 24 25 23 23 22 23 25 27 28 30 31 32 32 33 33 33 33 33 34 34 34 34 33 33 34 35 33 33 34 34 35 36 36 37 38 40 42 44 45 46 46 46 46 46 46 47 47 48 47 47 47 47 47 48 48 47
14 14 13 12 13 15 17 19 20 20 18 17 17 17 17 17 19 21 22 22 23 24 23 23 24 27 30 30 31 33 33 32 32 32 33 33 33 33 33 34 33 33 35 36 34 33 33 33 34 34 35 36 37 38 41 44 45 45 46 46 46 46 46 47 47 47 47 47 47 47 47 47 47 48
14 14 14 14 14 15 17 18 21 20 17 15 15 16 16 16 16 17 18 18 20 22 23 24 26 28 31 32 32 33 33 33 33 34 33 33 33 33 33 33 33 34 34 34 36 34 33 33 34 34 34 34 36 37 40 43 44 45 45 46 46 46 46 46 46 47 47 47 47 46 47 47 47 47
14 14 14 14 14 16 16 20 23 22 17 14 14 14 14 14 15 16 19 21 22 23 24 25 27 28 29 32 32 32 31 32 33 33 33 33 33 33 32 32 32 32 34 33 36 33 32 33 34 34 34 34 35 35 36 41 44 44 45 45 46 46 46 46 46 46 47 47 46 46 46 46 45 45
13 12 14 14 13 16 16 21 22 22 18 14 13 13 12 13 13 13 14 18 21 24 25 27 28 28 29 29 31 32 32 30 32 33 33 32 33 33 32 32 32 32 33 34 34 34 33 33 34 34 33 34 34 35 35 36 41 44 44 45 45 45 45 46 46 46 46 47 46 46 45 45 43 43
11 12 16 16 15 16 16 21 22 22 17 12 12 12 11 10 10 10 12 13 16 21 22 24 25 25 25 25 27 28 29 29 29 29 29 31 33 32 32 32 32 32 32 33 34 34 33 34 34 33 33 34 34 35 35 35 38 41 42 44 44 44 45 45 45 45 46 46 47 46 45 44 42 42
9 10 13 15 17 18 18 20 21 21 18 13 12 12 11 9 8 8 10 10 12 13 14 16 18 18 20 20 21 23 25 26 26 27 28 30 31 32 32 32 32 32 32 33 34 34 33 33 34 34 34 33 35 34 34 34 36 36 38 40 41 42 43 44 44 45 45 46 46 46 45 43 42 41
7 8 10 12 17 20 19 19 20 19 19 14 12 12 10 9 7 10 8 9 11 11 12 13 14 14 16 17 18 19 21 21 23 24 26 29 30 31 32 32 32 32 32 33 34 34 33 34 34 34 34 34 33 33 34 35 34 35 36 36 36 39 41 41 41 43 44 45 45 45 45 43 42 40
5 6 8 10 16 19 18 18 18 19 18 17 12 12 10 11 12 11 5 6 11 8 10 10 11 11 12 12 14 15 17 18 19 21 24 27 29 30 31 32 32 32 32 33 36 34 32 34 33 34 33 33 33 33 33 34 34 34 34 35 35 36 37 38 38 40 41 44 44 45 45 44 43 42
4 6 8 9 14 17 17 17 16 17 17 16 12 12 16 16 15 8 7 6 6 6 7 8 8 8 8 9 10 12 14 15 17 19 21 24 27 30 32 32 32 32 32 34 36 34 34 33 33 33 33 33 32 33 33 33 33 33 34 34 35 35 36 36 36 36 38 39 41 43 43 44 44 44
4 7 8 10 14 16 16 15 15 15 16 13 12 15 15 14 14 10 6 6 5 4 5 5 4 5 6 6 8 9 11 13 16 18 20 22 24 28 31 33 33 33 33 33 33 34 35 34 34 33 32 33 33 32 33 33 33 33 34 34 34 34 35 35 36 35 36 37 37 42 43 44 44 44
4 6 8 10 13 14 14 13 12 12 13 10 14 13 12 11 10 6 4 3 3 3 3 3 2 3 5 6 6 8 10 13 15 17 19 20 23 26 29 32 33 33 33 33 33 33 34 34 33 34 34 33 33 32 31 32 32 33 34 33 33 34 34 35 35 34 34 35 36 38 38 38 40 41
5 9 12 12 11 11 12 11 9 7 9 12 11 11 10 8 3 4 3 2 2 1 1 1 2 3 4 5 7 10 11 14 16 16 17 20 22 25 28 31 33 33 33 33 32 33 33 34 34 33 34 34 33 33 34 31 32 32 33 34 33 33 34 34 35 35 34 35 36 36 37 37 37 38
8 9 9 9 8 7 7 3 1 1 3 8 9 9 6 1 2 3 2 1 1 -0 1 1 1 3 4 5 7 9 11 12 12 14 15 17 19 22 25 28 32 33 32 31 33 33 33 33 34 33 34 33 34 34 33 33 31 32 33 34 34 34 33 34 34 34 35 35 35 35 35 36 37 37
-2 1 3 2 4 4 6 5 5 3 3 -0 -0 -1 0 0 1 2 2 1 0 1 1 1 2 3 5 6 7 6 8 9 11 13 14 16 18 20 23 26 30 32 32 30 31 32 32 33 33 34 34 33 33 34 33 34 33 32 32 33 34 33 33 34 34 34 35 35 35 34 35 36 36 36
-3 -4 -0 -1 -4 -4 -4 -4 -4 -4 -3 -3 -3 -3 -1 -1 1 3 6 5 1 1 2 2 3 3 3 3 4 5 6 9 10 12 13 14 15 19 23 25 27 30 31 31 30 30 32 33 33 34 34 34 33 33 33 34 33 33 33 33 34 33 34 34 34 34 34 35 35 34 35 36 36 36
-5 -6 -6 -7 -7 -7 -7 -7 -7 -7 -6 -6 -4 -4 -2 -3 -2 -1 -1 -2 -2 -1 -0 -1 -0 0 1 2 3 4 4 7 8 12 12 13 13 17 20 22 24 25 26 29 32 31 31 32 34 34 34 34 34 34 33 32 32 33 33 32 32 31 32 34 34 34 34 35 34 35 34 35 35 36
-8 -8 -9 -9 -9 -9 -9 -10 -9 -9 -9 -8 -8 -7 -2 -4 -4 -3 -2 -2 -2 -1 -1 -1 -1 -1 -0 -1 0 1 3 4 7 11 12 10 12 14 15 17 20 23 24 26 29 32 32 32 33 34 34 34 34 34 35 33 33 32 33 33 33 32 32 33 34 34 34 35 34 33 33 34 34 34
-9 -10 -10 -10 -10 -10 -10 -10 -10 -10 -10 -9 -9 -9 -7 -6 -5 -4 -4 -3 -3 -2 -2 -1 -1 -0 -1 -2 -1 0 1 2 5 7 9 10 10 12 14 15 17 19 20 22 25 28 31 32 32 32 32 32 33 34 35 35 34 32 32 32 33 34 32 32 34 33 34 34 35 34 33 33 33 33
-10 -10 -11 -11 -11 -11 -11 -11 -10 -10 -10 -10 -10 -10 -9 -8 -7 -6 -5 -3 -4 -4 -3 -4 -3 -2 -2 -2 -1 -0 1 3 3 5 6 6 7 9 12 14 16 17 19 19 21 25 29 31 32 31 29 30 29 29 32 34 34 34 33 32 32 32 32 32 33 34 34 34 35 34 33 33 33 33
-11 -11 -11 -12 -11 -11 -12 -11 -11 -11 -11 -11 -10 -10 -10 -10 -9 -7 -5 -2 -4 -4 -4 -4 -4 -3 -3 -2 -1 -0 0 1 1 3 4 5 6 8 9 11 13 15 16 17 20 23 26 29 32 31 30 29 28 28 31 32 32 34 35 33 32 32 33 32 32 32 33 34 34 35 34 34 34 34
-12 -11 -12 -12 -12 -12 -11 -11 -11 -11 -11 -11 -11 -10 -10 -9 -9 -8 -5 -5 -6 -6 -5 -6 -5 -4 -4 -4 -4 -3 -1 0 1 1 2 3 4 5 7 8 10 12 13 16 19 21 23 25 27 29 30 29 28 29 29 31 32 33 34 35 34 33 33 32 31 30 31 32 34 34 34 34 34 35
-11 -12 -12 -12 -12 -12 -12 -11 -11 -12 -12 -11 -11 -11 -10 -10 -9 -8 -6 -6 -7 -7 -7 -7 -6 -5 -6 -5 -4 -4 -3 -2 -1 -1 0 1 3 4 5 7 8 11 12 13 16 18 20 20 20 20 20 21 24 28 30 30 29 34 34 35 36 34 33 33 32 32 32 31 30 31 32 33 33 33
-11 -12 -12 -12 -12 -12 -12 -12 -12 -12 -12 -11 -11 -10 -10 -11 -10 -9 -7 -7 -7 -7 -8 -8 -7 -6 -7 -6 -5 -5 -4 -3 -2 -2 -1 -0 2 5 5 7 7 9 9 11 12 14 15 16 17 17 18 20 23 26 28 31 32 32 34 34 35 35 34 33 33 32 30 31 32 32 32 31 32 31
-12 -12 -13 -12 -13 -12 -12 -12 -12 -12 -12 -12 -12 -8 -10 -11 -11 -8 -7 -7 -8 -9 -9 -9 -9 -9 -8 -8 -7 -6 -7 -5 -3 -3 -2 -1 1 3 5 6 5 7 7 8 10 11 12 15 18 21 21 22 25 28 29 29 28 28 30 32 34 34 35 35 35 34 32 32 33 33 31 31 31 29
-13 -14 -13 -13 -13 -13 -13 -13 -13 -12 -12 -12 -12 -12 -12 -11 -11 -4 -7 -8 -9 -9 -9 -9 -9 -9 -9 -8 -8 -7 -7 -6 -6 -5 -4 -3 -2 -0 2 3 3 4 5 5 7 10 14 16 18 19 19 21 25 28 28 29 29 27 28 30 31 33 34 34 35 35 36 34 33 30 29 27 29 28
-12 -14 -14 -13 -12 -13 -13 -12 -13 -13 -13 -12 -12 -12 -12 -11 -12 -11 -11 -10 -10 -10 -10 -10 -9 -9 -9 -9 -8 -8 -8 -7 -6 -7 -6 -5 -4 -3 -1 1 2 4 5 6 9 11 13 15 16 16 18 21 25 29 29 30 29 30 29 28 30 29 30 33 34 34 34 35 36 36 36 32 29 27
-13 -13 -14 -13 -13 -13 -13 -13 -13 -12 -13 -13 -12 -13 -12 -12 -12 -11 -11 -11 -10 -10 -10 -10 -10 -10 -10 -9 -8 -9 -8 -6 -7 -8 -8 -6 -4 -3 -1 -1 1 2 4 5 7 8 11 12 14 16 16 18 22 24 27 29 30 31 30 30 29 27 29 29 30 32 33 33 33 34 34 35 36 35
-12 -14 -14 -13 -13 -13 -13 -12 -12 -12 -13 -13 -13 -13 -12 -13 -12 -12 -11 -11 -10 -10 -10 -10 -10 -10 -10 -9 -9 -10 -8 -4 -7 -8 -7 -6 -5 -4 -2 -2 -1 0 1 3 4 5 8 10 13 15 15 17 19 20 24 28 29 30 31 31 29 29 28 27 26 26 27 29 32 33 33 33 33 35
MSLP
1013.25 1012.73 1012.33 1011.93 1011.45 1010.93 1010.45 1009.97 1009.65 1009.37 1008.97 1008.61 1008.25 1007.93 1007.65 1007.21 1006.49 1005.25 1003.73 1002.13 1000.97 999.01 999.09 998.69 997.57 997.45 997.17 997.05 996.97 997.05 997.05 997.01 997.21 997.37 997.41 997.45 997.49 997.57 997.73 997.89 997.97 998.09 998.17 998.33 998.53 998.69 998.81 999.01 999.21 999.49 999.69 999.85 999.97 1000.01 1000.09 1000.41 1000.85 1001.09 1001.05 1001.21 1001.37 1001.45 1001.49 1001.81 1002.21 1002.53 1003.01 1003.45 1003.97 1004.45 1004.93 1005.41 1005.81 1006.09
1012.89 1012.37 1011.93 1011.49 1011.01 1010.45 1010.09 1009.69 1009.37 1009.01 1008.61 1008.21 1007.89 1007.53 1007.13 1006.77 1006.37 1005.37 1004.33 1002.05 1000.93 999.77 998.45 998.49 997.89 997.37 997.09 996.89 996.77 996.77 996.73 996.73 996.93 997.05 997.13 997.21 997.25 997.33 997.49 997.61 997.69 997.81 997.85 997.97 998.21 998.37 998.53 998.69 998.93 999.21 999.45 999.57 999.61 999.69 999.77 1000.13 1000.53 1000.81 1000.97 1000.97 1001.29 1001.49 1001.57 1001.65 1002.01 1002.49 1002.93 1003.37 1003.77 1004.21 1004.65 1005.13 1005.53 1005.97
1012.77 1012.37 1011.93 1011.41 1010.73 1010.17 1009.81 1009.49 1009.09 1008.65 1008.37 1008.05 1007.69 1007.29 1006.77 1006.25 1005.69 1004.97 1004.05 1003.05 999.97 999.73 998.57 997.77 997.61 997.29 996.93 996.73 996.65 996.57 996.53 996.53 996.65 996.77 996.89 996.93 997.01 997.13 997.21 997.29 997.41 997.49 997.57 997.69 997.89 998.05 998.25 998.45 998.69 998.97 999.25 999.33 999.33 999.45 999.57 999.93 1000.29 1000.61 1000.85 1000.73 1001.09 1001.33 1001.37 1001.61 1001.85 1002.29 1002.73 1003.13 1003.45 1003.69 1004.25 1004.73 1005.17 1005.73
1012.77 1012.37 1011.81 1011.21 1010.57 1010.05 1009.69 1009.37 1009.05 1008.73 1008.29 1007.89 1007.45 1006.89 1006.29 1005.61 1004.85 1004.21 1003.73 1002.93 1000.97 998.61 998.53 997.77 997.53 997.41 997.09 996.69 996.53 996.41 996.33 996.29 996.41 996.53 996.61 996.61 996.81 997.05 997.05 997.09 997.21 997.33 997.33 997.41 997.61 997.77 997.97 998.17 998.41 998.65 998.89 999.05 999.13 999.37 999.49 999.73 1000.13 1000.49 1000.69 1000.69 1000.93 1001.37 1001.41 1001.45 1001.73 1001.89 1002.29 1002.65 1002.97 1003.41 1003.85 1004.33 1004.89 1005.49
1012.45 1012.17 1011.85 1011.29 1010.65 1010.21 1009.89 1009.49 1009.13 1008.65 1008.09 1007.57 1007.01 1006.41 1005.77 1005.05 1004.45 1004.13 1003.45 1002.57 1000.97 998.05 997.61 997.57 997.33 997.05 996.93 996.57 996.25 996.13 996.13 996.13 996.21 996.33 996.37 996.45 996.61 996.77 996.89 996.93 997.05 997.13 997.21 997.25 997.37 997.53 997.69 997.89 998.17 998.41 998.65 998.89 999.09 999.33 999.41 999.53 999.93 1000.37 1000.69 1000.81 1001.01 1001.37 1001.49 1001.45 1001.53 1001.77 1001.89 1002.33 1002.65 1003.05 1003.53 1004.01 1004.65 1005.21
1012.17 1012.01 1011.77 1011.25 1010.65 1010.17 1009.81 1009.45 1009.01 1008.41 1007.77 1007.21 1006.65 1006.17 1005.73 1005.05 1004.37 1003.69 1003.21 1002.17 1001.13 998.37 996.93 997.13 996.85 996.77 996.61 996.41 996.01 995.93 995.89 995.93 996.05 996.13 996.17 996.25 996.33 996.49 996.61 996.73 996.77 996.89 997.01 997.09 997.17 997.29 997.45 997.65 997.97 998.29 998.53 998.77 999.09 999.37 999.45 999.49 999.69 1000.25 1000.73 1000.77 1000.89 1001.21 1001.37 1001.49 1001.33 1001.65 1001.65 1002.05 1002.41 1002.89 1003.37 1003.89 1004.45 1004.89
1011.93 1011.93 1011.73 1011.17 1010.65 1010.09 1009.69 1009.29 1008.77 1008.13 1007.61 1007.09 1006.61 1005.97 1005.37 1004.81 1004.05 1003.25 1002.61 1002.05 1000.73 998.57 996.77 996.65 996.69 996.53 996.33 996.09 995.73 995.65 995.57 995.61 995.73 995.85 995.93 996.01 996.13 996.21 996.33 996.45 996.53 996.65 996.81 996.89 996.97 997.05 997.17 997.41 997.69 998.09 998.41 998.69 999.05 999.33 999.57 999.65 999.61 1000.09 1000.65 1000.77 1000.65 1000.97 1001.17 1001.29 1001.45 1001.37 1001.53 1001.85 1002.33 1002.85 1003.29 1003.73 1004.17 1004.57
1011.97 1012.01 1011.73 1011.25 1010.69 1010.17 1009.85 1009.41 1008.81 1008.09 1007.49 1006.97 1006.37 1005.65 1004.97 1004.33 1003.49 1002.57 1001.85 1001.17 1000.41 998.53 996.85 996.37 996.53 996.29 996.17 995.73 995.45 995.33 995.33 995.45 995.61 995.65 995.65 995.81 995.93 996.05 996.13 996.21 996.29 996.37 996.53 996.65 996.73 996.81 996.97 997.17 997.45 997.81 998.21 998.57 998.97 999.33 999.61 999.77 999.85 1000.09 1000.41 1000.45 1000.57 1000.77 1000.93 1001.17 1001.45 1001.17 1001.25 1001.53 1002.09 1002.57 1002.93 1003.33 1003.77 1004.17
1012.09 1012.05 1011.81 1011.37 1010.89 1010.49 1010.05 1009.45 1008.81 1008.05 1007.37 1006.65 1006.05 1005.29 1004.49 1003.77 1002.89 1002.13 1001.45 1000.49 999.53 998.41 997.09 996.33 996.29 996.17 995.89 995.49 995.25 995.13 995.13 995.33 995.45 995.57 995.65 995.69 995.81 995.89 995.97 996.05 996.09 996.25 996.37 996.49 996.57 996.69 996.81 997.05 997.29 997.57 997.97 998.41 998.77 999.13 999.45 999.77 1000.05 1000.13 1000.17 1000.21 1000.41 1000.61 1000.73 1000.85 1001.17 1001.33 1000.97 1001.37 1001.73 1002.17 1002.61 1003.05 1003.49 1003.97
1012.13 1011.97 1011.77 1011.45 1011.05 1010.61 1010.13 1009.41 1008.61 1007.81 1007.13 1006.45 1005.69 1004.89 1004.05 1003.25 1002.57 1001.85 1000.93 1000.01 998.97 997.93 997.01 996.53 996.29 996.01 995.73 995.33 995.01 995.01 994.93 995.05 995.37 995.53 995.61 995.69 995.77 995.85 995.97 995.97 996.01 996.17 996.33 996.45 996.61 996.69 996.85 997.05 997.29 997.53 997.93 998.33 998.61 998.89 999.25 999.61 1000.01 1000.25 1000.13 1000.09 1000.29 1000.73 1000.85 1000.53 1000.93 1001.41 1001.01 1001.05 1001.53 1001.93 1002.33 1002.81 1003.33 1003.85
1012.21 1011.93 1011.65 1011.29 1010.93 1010.49 1009.97 1009.25 1008.25 1007.33 1006.61 1005.93 1005.13 1004.45 1003.61 1002.93 1002.37 1001.57 1000.57 999.53 998.53 997.41 996.73 996.41 996.13 995.73 995.29 995.13 995.05 994.93 994.97 994.85 994.97 995.37 995.65 995.73 995.77 995.77 995.77 995.89 996.01 996.09 996.25 996.29 996.25 996.33 996.53 996.85 997.25 997.53 997.89 998.29 998.61 998.81 999.09 999.45 999.77 1000.01 1000.13 1000.21 1000.29 1000.65 1001.01 1000.69 1000.73 1001.05 1001.33 1001.13 1001.29 1001.65 1002.09 1002.57 1003.17 1003.77
1012.17 1011.89 1011.49 1011.13 1010.69 1010.21 1009.57 1008.85 1008.09 1007.33 1006.45 1005.57 1004.85 1004.05 1003.41 1002.81 1002.13 1001.29 1000.25 999.25 998.29 997.25 996.37 996.09 995.85 995.53 995.25 995.13 995.01 994.89 995.01 995.05 995.05 995.09 995.37 995.61 995.69 995.73 995.81 995.81 995.81 996.17 996.29 996.33 996.45 996.45 996.61 996.93 997.21 997.49 997.81 998.09 998.45 998.77 999.05 999.33 999.57 999.69 999.89 1000.13 1000.21 1000.49 1000.73 1000.61 1000.65 1001.05 1001.21 1001.37 1001.53 1001.89 1002.13 1002.53 1003.05 1003.57
1012.13 1011.77 1011.33 1010.89 1010.37 1009.69 1008.93 1008.13 1007.57 1007.01 1006.33 1005.45 1004.61 1003.85 1003.45 1002.77 1002.13 1001.21 1000.33 999.41 998.61 997.69 996.53 995.65 995.45 995.33 995.25 995.21 995.13 994.97 994.93 995.01 994.93 995.05 995.09 995.41 995.45 995.57 995.65 995.93 995.97 996.05 996.17 996.33 996.41 996.45 996.49 996.81 997.25 997.53 997.85 998.01 998.33 998.61 998.85 999.17 999.41 999.49 999.61 999.89 1000.01 1000.25 1000.57 1000.57 1000.81 1001.13 1001.37 1001.57 1001.69 1001.97 1002.41 1002.61 1002.93 1003.41
1012.09 1011.73 1011.25 1010.69 1010.01 1009.37 1008.61 1007.93 1007.25 1006.49 1005.61 1004.97 1004.53 1004.01 1003.45 1002.85 1002.25 1001.69 1000.97 999.81 998.85 998.25 997.29 995.93 995.29 995.25 995.21 995.17 995.05 994.85 994.69 994.73 994.93 995.09 995.25 995.41 995.61 995.61 995.65 995.77 995.93 996.05 996.05 996.25 996.45 996.65 996.61 996.69 997.13 997.41 997.57 997.73 998.05 998.37 998.73 998.93 999.09 999.21 999.41 999.61 999.77 1000.05 1000.33 1000.57 1000.85 1001.13 1001.29 1001.53 1001.73 1001.93 1002.25 1002.73 1002.93 1003.25
1012.01 1011.65 1011.09 1010.53 1009.85 1009.17 1008.33 1007.57 1006.81 1005.97 1005.17 1004.57 1004.25 1003.85 1003.45 1003.05 1002.61 1001.89 1000.89 1000.01 999.53 999.09 998.45 997.21 996.29 996.09 995.73 995.25 995.05 994.89 994.81 994.73 994.77 994.97 995.13 995.29 995.53 995.49 995.49 995.73 995.93 996.05 995.97 996.17 996.41 996.77 996.81 996.73 997.01 997.33 997.49 997.65 997.81 997.97 998.17 998.45 998.85 999.09 999.37 999.61 999.69 999.93 1000.17 1000.45 1000.77 1000.93 1001.21 1001.41 1001.73 1001.93 1002.13 1002.37 1002.89 1003.21
1012.13 1011.65 1011.05 1010.41 1009.81 1009.13 1008.25 1007.33 1006.41 1005.57 1004.97 1004.81 1004.61 1004.17 1003.57 1002.97 1002.29 1001.69 1001.13 1000.57 1000.01 999.49 998.93 998.13 997.37 997.09 996.61 995.81 995.37 995.17 994.97 994.89 994.85 994.89 994.89 995.09 995.21 995.29 995.37 995.33 995.49 995.69 995.89 995.93 996.33 996.77 996.97 996.89 996.97 997.25 997.45 997.57 997.73 997.81 997.97 998.33 998.65 998.85 999.09 999.37 999.53 999.81 1000.05 1000.33 1000.73 1001.05 1001.25 1001.57 1001.73 1001.85 1001.97 1002.25 1002.57 1003.09
1012.29 1011.73 1011.01 1010.33 1009.61 1008.97 1008.13 1007.13 1006.21 1005.37 1005.05 1004.97 1004.57 1004.05 1003.41 1002.89 1002.29 1001.65 1001.13 1000.85 1000.57 1000.01 999.45 998.85 998.09 997.53 996.89 996.17 995.65 995.45 995.25 995.05 994.93 995.05 995.01 995.01 995.09 995.09 995.17 995.17 995.37 995.85 995.89 995.85 996.13 996.61 997.05 997.05 997.05 997.21 997.41 997.57 997.73 997.89 998.01 998.21 998.53 998.77 999.01 999.13 999.21 999.53 999.93 1000.29 1000.69 1001.01 1001.29 1001.53 1001.73 1001.85 1002.01 1002.13 1002.53 1003.05
1012.45 1011.89 1011.25 1010.37 1009.53 1008.81 1008.09 1007.13 1006.13 1005.45 1005.29 1005.05 1004.53 1003.97 1003.53 1003.05 1002.49 1001.97 1001.53 1001.13 1000.65 1000.21 999.77 999.21 998.49 997.57 996.93 996.45 996.01 995.57 995.29 995.13 994.97 994.97 995.01 995.17 995.21 995.33 995.33 995.25 995.37 995.77 995.85 995.65 995.85 996.57 997.13 997.13 997.13 997.29 997.45 997.53 997.69 997.93 998.05 998.17 998.41 998.65 998.85 999.01 999.21 999.57 999.93 1000.29 1000.65 1000.85 1001.01 1001.21 1001.49 1001.81 1002.05 1002.21 1002.53 1002.89
1012.65 1012.09 1011.49 1010.69 1009.81 1008.97 1008.21 1007.29 1006.21 1005.65 1005.57 1005.37 1004.89 1004.29 1003.77 1003.37 1002.85 1002.41 1002.01 1001.57 1000.97 1000.33 999.77 999.13 998.37 997.65 996.93 996.45 996.13 995.77 995.45 995.33 995.21 995.13 995.09 995.17 995.29 995.49 995.69 995.73 995.77 995.93 995.97 995.89 995.65 996.01 996.93 997.17 997.09 997.33 997.49 997.65 997.73 997.93 998.09 998.21 998.37 998.53 998.73 998.93 999.29 999.61 999.97 1000.29 1000.57 1000.81 1001.05 1001.21 1001.37 1001.57 1001.81 1002.13 1002.49 1002.77
1012.89 1012.37 1011.69 1010.81 1009.93 1009.13 1008.53 1007.49 1006.57 1006.09 1006.05 1005.69 1005.13 1004.57 1004.17 1003.69 1003.13 1002.77 1002.61 1002.13 1001.37 1000.69 999.93 999.13 998.49 998.09 997.53 996.89 996.65 996.37 996.05 995.69 995.45 995.29 995.33 995.45 995.49 995.53 995.65 995.69 995.89 995.93 996.01 996.01 995.73 995.93 996.89 997.17 997.01 997.37 997.65 997.77 997.81 998.01 998.21 998.29 998.41 998.61 998.77 999.05 999.29 999.61 999.97 1000.25 1000.49 1000.73 1000.97 1001.25 1001.53 1001.69 1001.93 1002.17 1002.45 1002.81
1013.13 1012.65 1011.89 1011.09 1010.13 1009.21 1008.73 1007.81 1007.05 1006.49 1006.45 1006.17 1005.45 1004.97 1004.61 1004.17 1003.69 1003.21 1002.61 1002.21 1001.53 1000.69 999.89 999.29 998.69 998.09 997.69 997.41 997.05 996.73 996.45 996.33 995.93 995.49 995.45 995.61 995.57 995.45 995.53 995.81 995.85 996.01 996.17 996.01 995.89 995.85 996.61 997.13 997.05 997.37 997.69 997.77 997.85 997.97 998.09 998.33 998.45 998.61 998.81 999.05 999.33 999.61 999.89 1000.17 1000.41 1000.65 1000.89 1001.09 1001.45 1001.77 1002.01 1002.25 1002.49 1002.89
1013.41 1013.01 1012.17 1011.37 1010.37 1009.49 1008.93 1008.17 1007.49 1006.97 1006.89 1006.77 1006.13 1005.41 1005.01 1004.41 1003.97 1003.69 1003.21 1002.29 1001.37 1000.65 1000.13 999.65 999.17 998.77 998.41 998.05 997.73 997.45 997.29 997.09 996.77 996.53 996.41 996.21 995.77 995.57 995.49 995.65 995.93 996.25 996.37 996.25 996.17 996.09 996.57 997.01 997.05 997.37 997.77 997.81 997.93 997.97 998.09 998.25 998.41 998.61 998.85 999.05 999.29 999.57 999.81 1000.09 1000.37 1000.65 1000.89 1001.09 1001.29 1001.65 1001.97 1002.17 1002.49 1002.89
1013.77 1013.25 1012.57 1011.73 1010.65 1009.77 1009.25 1008.65 1007.97 1007.53 1007.29 1007.37 1006.85 1006.25 1005.61 1005.01 1004.85 1004.81 1004.49 1003.45 1002.17 1001.25 1000.53 999.97 999.57 999.17 999.09 998.97 998.73 998.45 998.13 997.81 997.57 997.53 997.33 996.85 996.41 995.93 995.93 995.97 996.01 996.05 996.33 996.41 996.37 996.37 996.85 996.93 997.05 997.05 997.49 997.85 997.97 998.09 998.13 998.21 998.37 998.61 998.85 999.13 999.37 999.57 999.81 1000.05 1000.33 1000.61 1000.85 1001.05 1001.25 1001.45 1001.85 1002.05 1002.41 1002.93
1014.01 1013.57 1012.85 1012.17 1011.05 1010.17 1009.69 1009.21 1008.61 1008.13 1007.77 1007.81 1007.65 1007.01 1006.49 1005.85 1005.45 1005.41 1005.17 1004.49 1003.73 1003.09 1002.53 1001.89 1001.29 1001.05 1000.69 1000.13 999.61 999.13 998.65 998.41 998.37 998.33 998.05 997.65 997.25 996.81 996.37 996.21 996.13 996.17 996.45 996.61 996.61 996.57 996.97 996.97 997.13 997.05 997.05 997.17 997.69 998.01 998.21 998.29 998.49 998.61 998.81 999.09 999.37 999.61 999.85 1000.17 1000.45 1000.61 1000.77 1000.97 1001.13 1001.29 1001.53 1001.85 1002.17 1002.81
1014.69 1013.97 1013.25 1012.65 1011.65 1010.77 1010.29 1009.81 1009.29 1008.73 1008.37 1008.09 1008.05 1007.53 1007.33 1007.01 1006.73 1006.17 1005.61 1004.97 1004.49 1004.09 1003.41 1002.65 1002.13 1001.73 1001.37 1001.01 1000.57 1000.13 999.73 999.41 999.17 998.89 998.61 998.33 998.01 997.61 997.17 996.77 996.57 996.65 996.85 996.81 996.77 996.73 997.09 997.17 997.37 997.45 997.49 997.41 997.61 997.85 998.33 998.37 998.57 998.69 998.81 998.97 999.21 999.49 999.77 1000.09 1000.33 1000.61 1000.77 1000.93 1001.13 1001.33 1001.49 1001.77 1002.09 1002.45
1015.21 1014.57 1013.81 1013.17 1012.25 1011.49 1011.01 1010.53 1010.05 1009.45 1009.09 1008.69 1008.37 1007.97 1007.65 1007.29 1006.85 1006.77 1006.45 1005.81 1005.09 1004.53 1003.85 1003.33 1003.01 1002.65 1002.33 1002.05 1001.57 1001.17 1000.81 1000.49 1000.09 999.73 999.29 998.81 998.45 998.09 997.77 997.49 997.25 997.09 997.17 997.17 997.05 996.97 997.17 997.37 997.49 997.61 997.77 997.77 998.01 997.85 998.17 998.53 998.73 998.81 998.93 999.05 999.13 999.33 999.57 999.93 1000.25 1000.53 1000.77 1000.93 1001.09 1001.25 1001.49 1001.73 1001.97 1002.25
1015.77 1014.97 1014.33 1013.77 1012.97 1012.25 1011.77 1011.41 1011.01 1010.45 1009.93 1009.61 1009.17 1008.77 1008.29 1007.85 1007.37 1007.13 1006.81 1006.29 1005.61 1005.09 1004.73 1004.41 1004.13 1003.89 1003.65 1003.29 1002.85 1002.33 1001.77 1001.33 1000.89 1000.41 999.89 999.41 998.93 998.33 997.85 997.61 997.53 997.53 997.49 997.33 997.37 997.29 997.17 997.41 997.45 997.61 997.73 997.85 997.97 998.37 998.25 998.37 998.65 998.97 998.97 999.13 999.25 999.49 999.69 999.85 1000.09 1000.41 1000.73 1000.93 1001.09 1001.25 1001.45 1001.77 1002.05 1002.33
1016.21 1015.33 1014.81 1014.25 1013.61 1012.97 1012.57 1012.29 1011.97 1011.57 1010.85 1010.45 1009.97 1009.53 1009.21 1008.77 1008.29 1007.81 1007.41 1006.89 1006.57 1006.21 1005.69 1005.41 1005.33 1005.17 1004.89 1004.45 1003.85 1003.37 1002.85 1002.29 1001.61 1001.01 1000.41 999.81 999.21 998.73 998.17 997.77 997.53 997.45 997.45 997.45 997.37 997.41 997.45 997.45 997.53 997.61 997.73 997.93 997.93 998.13 998.37 998.81 998.85 998.93 998.97 999.37 999.41 999.57 999.73 999.89 1000.13 1000.41 1000.69 1000.93 1001.17 1001.37 1001.61 1001.93 1002.21 1002.53
1016.57 1015.81 1015.21 1014.61 1014.25 1013.65 1013.17 1012.97 1012.69 1012.45 1011.85 1011.25 1010.81 1010.29 1010.01 1009.61 1009.01 1008.49 1008.17 1007.93 1007.41 1007.01 1006.97 1006.97 1006.73 1006.41 1005.97 1005.65 1005.17 1004.41 1003.53 1002.73 1001.89 1001.17 1000.57 1000.09 999.49 998.93 998.37 997.97 997.69 997.49 997.45 997.49 997.53 997.53 997.57 997.69 997.73 997.81 997.85 997.93 998.13 998.21 998.17 998.49 998.85 999.01 999.09 999.25 999.45 999.65 999.81 999.89 1000.01 1000.25 1000.61 1000.85 1001.05 1001.25 1001.49 1001.81 1002.21 1002.53
1016.93 1016.25 1015.69 1015.13 1014.69 1014.29 1013.89 1013.85 1013.57 1013.37 1012.81 1012.25 1011.65 1011.13 1010.73 1010.29 1009.81 1009.29 1008.93 1008.65 1008.25 1008.21 1008.13 1007.89 1007.65 1007.37 1006.81 1006.13 1005.49 1004.77 1003.89 1003.13 1002.53 1002.05 1001.45 1000.73 999.93 999.45 998.97 998.37 997.81 997.57 997.53 997.57 997.65 997.69 997.73 997.77 997.85 997.89 997.93 998.05 998.05 998.25 998.37 998.53 998.93 999.13 999.25 999.25 999.37 999.85 1000.05 1000.05 1000.05 1000.13 1000.33 1000.57 1000.89 1001.21 1001.49 1001.69 1001.93 1002.25
1017.37 1016.89 1016.41 1016.13 1015.93 1015.53 1015.09 1014.81 1014.49 1014.01 1013.41 1012.77 1012.25 1011.85 1011.53 1011.33 1010.85 1010.33 1009.93 1009.93 1009.77 1009.41 1009.05 1008.69 1008.33 1007.85 1007.41 1006.73 1005.73 1005.09 1004.37 1003.73 1003.29 1002.77 1002.21 1001.53 1000.97 1000.29 999.69 999.05 998.37 997.97 997.77 997.73 997.81 997.89 997.89 997.89 997.97 998.01 998.13 998.21 998.25 998.29 998.37 998.33 998.61 999.21 999.41 999.49 999.45 999.37 999.77 1000.17 1000.25 1000.25 1000.29 1000.45 1000.77 1001.17 1001.45 1001.69 1001.97 1002.13
1017.97 1017.57 1017.21 1016.81 1016.37 1015.85 1015.13 1014.61 1014.29 1014.21 1014.09 1013.89 1013.49 1013.01 1012.53 1012.29 1011.85 1011.45 1011.09 1010.81 1010.49 1010.17 1009.89 1009.53 1008.93 1008.21 1007.57 1006.93 1006.49 1005.89 1005.25 1004.53 1004.05 1003.37 1002.81 1002.37 1001.81 1001.01 1000.21 999.45 999.09 998.73 998.33 997.97 997.89 997.97 998.05 998.09 998.09 998.09 998.09 998.17 998.33 998.49 998.53 998.53 998.61 998.97 999.25 999.45 999.41 999.53 999.81 1000.01 1000.25 1000.41 1000.49 1000.65 1000.89 1001.05 1001.17 1001.33 1001.61 1001.93
1018.17 1017.57 1016.81 1016.41 1016.05 1015.97 1015.89 1015.53 1015.25 1014.93 1014.61 1014.41 1014.33 1013.97 1013.21 1013.01 1012.49 1011.93 1011.29 1011.05 1010.97 1010.77 1010.21 1009.77 1009.37 1008.97 1008.41 1007.89 1007.33 1006.65 1005.97 1005.33 1004.77 1004.01 1003.53 1003.17 1002.69 1001.81 1001.09 1000.69 1000.37 999.97 999.53 998.85 998.33 998.09 998.13 998.17 998.21 998.17 998.21 998.21 998.25 998.37 998.57 998.69 998.81 998.93 999.01 999.41 999.53 999.61 999.89 999.97 1000.09 1000.45 1000.73 1000.89 1001.01 1001.13 1001.29 1001.41 1001.45 1001.57
1018.37 1018.05 1017.97 1017.89 1017.69 1017.37 1017.01 1016.77 1016.49 1016.25 1015.97 1015.41 1014.85 1014.57 1014.17 1013.85 1013.37 1012.89 1012.53 1012.25 1012.01 1011.53 1011.09 1010.73 1010.05 1009.49 1009.13 1008.65 1008.13 1007.57 1007.01 1006.21 1005.49 1004.93 1004.45 1004.17 1003.53 1002.81 1002.29 1001.81 1001.33 1000.93 1000.57 1000.01 999.25 998.61 998.37 998.33 998.33 998.29 998.29 998.37 998.37 998.41 998.53 998.61 998.65 998.93 999.01 999.21 999.49 999.57 999.81 1000.01 1000.17 1000.37 1000.53 1000.57 1000.89 1001.37 1001.57 1001.61 1001.65 1001.69
1018.61 1018.69 1018.57 1018.65 1018.53 1018.41 1018.21 1017.89 1017.65 1017.37 1016.93 1016.49 1016.05 1015.53 1015.13 1014.69 1014.33 1013.93 1013.49 1013.09 1012.77 1012.25 1011.69 1011.25 1010.85 1010.45 1009.97 1009.49 1008.97 1008.37 1007.89 1007.25 1006.49 1005.53 1005.05 1004.73 1004.29 1003.93 1003.45 1002.85 1002.29 1001.89 1001.53 1001.01 1000.29 999.61 998.97 998.57 998.49 998.45 998.49 998.53 998.49 998.49 998.49 998.53 998.65 998.93 999.13 999.29 999.37 999.41 999.73 1000.01 1000.09 1000.41 1000.61 1000.73 1000.89 1001.09 1001.41 1001.61 1001.81 1001.93
1019.29 1019.45 1019.41 1019.21 1019.17 1018.97 1018.69 1018.57 1018.37 1018.09 1017.73 1017.41 1017.01 1016.45 1015.73 1015.33 1015.13 1014.69 1014.21 1013.89 1013.69 1013.17 1012.57 1012.09 1011.57 1011.13 1010.77 1010.37 1009.85 1009.29 1008.61 1007.93 1007.25 1006.49 1005.97 1005.61 1005.21 1004.69 1004.17 1003.77 1003.29 1002.81 1002.33 1001.93 1001.33 1000.53 999.73 998.93 998.65 998.57 998.61 998.57 998.61 998.53 998.41 998.41 998.49 998.61 998.89 999.09 999.37 999.41 999.57 999.93 1000.05 1000.21 1000.45 1000.65 1000.77 1000.89 1001.09 1001.25 1001.49 1001.81
1020.01 1019.97 1019.93 1019.85 1019.69 1019.49 1019.25 1019.09 1018.85 1018.61 1018.41 1018.01 1017.61 1017.25 1016.81 1016.33 1015.89 1015.49 1015.05 1014.57 1014.17 1013.77 1013.37 1013.05 1012.57 1012.13 1011.73 1011.21 1010.65 1010.09 1009.49 1008.85 1008.21 1007.57 1007.17 1006.65 1006.25 1005.65 1005.05 1004.49 1004.05 1003.57 1003.09 1002.57 1001.93 1001.21 1000.49 999.57 998.77 998.65 998.65 998.65 998.61 998.53 998.41 998.57 998.61 998.57 998.57 998.85 999.25 999.33 999.45 999.81 1000.01 1000.21 1000.33 1000.33 1000.57 1000.61 1000.65 1000.81 1001.09 1001.41
1020.45 1020.49 1020.25 1020.17 1020.05 1019.93 1019.73 1019.49 1019.21 1018.89 1018.65 1018.41 1018.09 1017.69 1017.33 1017.05 1016.57 1015.97 1015.37 1014.77 1014.45 1014.21 1013.81 1013.49 1013.09 1012.69 1012.33 1011.97 1011.33 1010.73 1010.25 1009.73 1009.21 1008.77 1008.29 1007.77 1007.13 1006.57 1006.17 1005.61 1004.85 1004.29 1003.81 1003.17 1002.49 1001.93 1001.29 1000.61 999.97 999.53 999.01 998.57 998.49 998.61 998.53 998.65 998.65 998.53 998.53 998.57 998.89 999.25 999.45 999.65 999.93 1000.01 1000.25 1000.33 1000.33 1000.49 1000.57 1000.61 1000.77 1001.09
1020.85 1020.73 1020.65 1020.53 1020.37 1020.25 1019.97 1019.73 1019.53 1019.25 1018.97 1018.65 1018.37 1017.97 1017.61 1017.25 1016.77 1016.17 1015.61 1015.29 1015.09 1014.77 1014.41 1014.05 1013.69 1013.37 1013.05 1012.57 1012.13 1011.65 1011.01 1010.33 1009.85 1009.57 1009.29 1008.81 1008.21 1007.57 1006.97 1006.29 1005.61 1004.89 1004.37 1003.69 1003.05 1002.57 1002.09 1001.81 1001.73 1001.69 1001.61 1001.17 1000.21 999.29 998.89 998.45 998.41 998.25 998.37 998.45 998.53 998.97 999.37 999.33 999.53 999.85 1000.01 1000.29 1000.53 1000.65 1000.81 1001.01 1001.13 1001.21
1021.25 1021.17 1021.01 1020.89 1020.65 1020.53 1020.29 1020.05 1019.77 1019.53 1019.25 1018.97 1018.77 1018.33 1018.01 1017.65 1017.21 1016.61 1016.13 1015.77 1015.53 1015.33 1015.09 1014.73 1014.37 1013.89 1013.49 1013.17 1012.73 1012.25 1011.77 1011.29 1010.93 1010.65 1010.21 1009.65 1008.89 1008.25 1007.81 1007.17 1006.61 1005.89 1005.29 1004.65 1003.89 1003.29 1002.97 1002.81 1002.73 1002.57 1002.21 1001.77 1001.13 1000.41 999.89 999.25 998.65 998.53 998.41 998.57 998.65 998.65 998.93 999.29 999.45 999.69 1000.09 1000.25 1000.45 1000.65 1000.89 1001.01 1001.01 1001.45
1021.49 1021.29 1021.17 1021.05 1020.89 1020.69 1020.45 1020.21 1020.01 1019.73 1019.45 1019.21 1018.93 1018.53 1018.33 1018.05 1017.61 1016.97 1016.69 1016.33 1016.13 1015.73 1015.37 1015.09 1014.77 1014.45 1014.13 1013.77 1013.37 1012.93 1012.41 1011.81 1011.49 1011.17 1010.77 1010.21 1009.57 1008.89 1008.29 1007.65 1007.13 1006.61 1006.05 1005.29 1004.73 1004.29 1003.89 1003.49 1003.01 1002.61 1002.17 1001.41 1000.57 999.93 999.49 998.89 998.65 998.45 998.45 998.49 998.61 998.73 998.85 998.93 999.09 999.41 999.69 1000.09 1000.33 1000.57 1000.81 1001.09 1001.29 1001.57
1021.73 1021.57 1021.37 1021.21 1020.97 1020.81 1020.61 1020.37 1020.09 1019.89 1019.57 1019.33 1019.05 1018.73 1018.49 1018.17 1017.89 1017.29 1017.13 1016.85 1016.53 1016.17 1015.85 1015.45 1015.17 1014.85 1014.57 1014.25 1013.89 1013.49 1013.13 1012.61 1012.17 1011.81 1011.45 1010.85 1010.17 1009.57 1008.93 1008.37 1007.93 1007.29 1006.93 1006.37 1005.69 1005.05 1004.25 1003.65 1003.05 1002.37 1001.69 1001.01 1000.01 999.01 998.65 998.37 998.37 998.41 998.45 998.41 998.57 998.73 998.85 998.93 999.05 999.13 999.33 999.77 1000.25 1000.65 1001.05 1001.45 1001.49 1001.65
1021.85 1021.73 1021.49 1021.29 1021.09 1020.89 1020.69 1020.45 1020.21 1019.97 1019.73 1019.45 1019.17 1018.89 1018.57 1018.25 1017.93 1017.49 1017.17 1016.89 1016.69 1016.37 1016.09 1015.81 1015.53 1015.25 1014.97 1014.61 1014.29 1014.01 1013.61 1013.05 1012.81 1012.57 1012.13 1011.61 1011.05 1010.41 1009.61 1009.17 1008.77 1008.17 1007.57 1006.81 1006.01 1005.33 1004.53 1003.77 1003.13 1002.45 1001.77 1001.09 1000.09 999.21 998.57 998.33 998.29 998.25 998.37 998.41 998.45 998.65 998.85 999.01 999.09 999.25 999.41 999.45 999.45 999.65 999.93 1000.29 1000.89 1001.17
1021.97 1021.77 1021.61 1021.45 1021.21 1020.93 1020.73 1020.49 1020.25 1020.05 1019.81 1019.57 1019.29 1019.05 1018.69 1018.37 1018.01 1017.73 1017.53 1017.21 1016.89 1016.61 1016.41 1016.17 1015.85 1015.53 1015.21 1014.89 1014.57 1014.25 1013.89 1013.49 1013.25 1013.01 1012.53 1012.05 1011.53 1011.01 1010.49 1009.93 1009.21 1008.61 1008.01 1007.29 1006.41 1005.57 1004.77 1004.13 1003.53 1002.97 1002.37 1001.61 1000.89 1000.05 999.21 998.65 998.45 998.33 998.37 998.45 998.49 998.57 998.61 999.01 999.29 999.45 999.53 999.61 999.73 999.81 999.85 999.85 999.81 1000.01
1022.01 1021.85 1021.69 1021.45 1021.29 1021.09 1020.81 1020.57 1020.33 1020.09 1019.85 1019.61 1019.37 1019.13 1018.85 1018.57 1018.25 1017.89 1017.61 1017.37 1017.09 1016.77 1016.53 1016.29 1016.05 1015.81 1015.53 1015.09 1014.73 1014.37 1013.97 1013.77 1013.65 1013.41 1012.97 1012.45 1011.93 1011.37 1010.81 1010.29 1009.77 1009.17 1008.57 1007.85 1007.09 1006.25 1005.49 1004.69 1003.89 1003.25 1002.81 1002.25 1001.73 1001.17 1000.13 999.41 999.01 998.65 998.49 998.41 998.49 998.57 998.73 998.93 999.09 999.37 999.61 999.69 999.61 999.69 999.77 999.93 1000.13 1000.33
Wind_Speed
16 15 16 13 13 12 12 11 11 12 12 12 12 12 12 13 12 13 15 14 13 13 6 8 6 6 8 8 6 7 7 9 10 8 9 9 9 12 19 20 22 22 22 22 21 20 21 20 19 19 20 17 16 14 11 12 9 5 4 4 9 15 26 25 26 28 27 27 25 24 25 24 22 22
14 15 14 13 13 12 11 11 12 12 12 12 12 12 12 12 13 13 13 15 12 14 11 7 9 6 6 6 5 5 7 9 11 8 8 9 9 13 16 19 21 21 21 21 20 21 20 21 20 20 20 19 18 15 14 12 10 10 7 5 7 13 20 26 26 26 26 25 25 26 24 22 21 20
14 15 16 14 12 11 12 12 12 11 11 12 12 12 12 13 14 14 13 13 16 10 13 8 6 8 6 5 5 5 5 7 10 8 8 9 12 14 13 18 19 21 21 20 20 20 19 19 20 22 21 21 19 17 15 12 12 12 7 6 7 12 15 24 27 26 27 26 24 24 23 22 21 21
14 15 15 14 12 12 11 11 11 11 12 13 12 12 12 13 13 13 12 14 18 14 10 10 9 10 8 5 5 5 5 6 10 7 8 9 11 9 8 14 18 19 19 20 20 19 20 18 19 19 20 20 20 18 17 15 13 11 10 9 8 9 12 23 24 29 27 26 25 24 24 23 22 22
13 13 15 15 14 12 12 11 12 12 14 14 12 11 11 12 12 12 13 14 15 17 9 9 9 9 9 6 4 5 5 5 5 7 7 8 7 7 7 7 14 19 19 18 19 19 19 18 18 18 19 19 19 20 18 16 13 13 11 8 7 12 10 16 22 23 24 24 24 24 24 23 23 22
12 11 14 15 14 12 12 13 13 13 12 11 12 12 12 13 14 13 12 14 14 19 9 7 6 7 7 10 4 5 5 5 4 6 6 6 6 7 6 7 7 17 19 18 18 19 19 19 18 18 17 18 19 19 15 13 14 13 11 12 11 8 13 12 20 21 23 23 25 25 25 25 24 24
12 12 12 13 13 11 12 13 13 13 12 12 13 14 13 14 14 14 13 13 14 16 13 7 7 7 6 8 7 6 5 5 6 7 7 6 5 5 7 7 6 12 18 19 19 18 20 19 19 19 18 17 17 18 14 14 13 13 12 12 12 11 11 10 14 24 23 24 26 27 26 25 24 23
12 12 13 13 13 13 13 13 13 12 12 13 12 14 14 13 14 13 13 13 12 12 12 5 6 6 7 6 5 4 3 5 5 6 5 4 5 4 5 6 6 8 15 19 20 19 19 19 19 19 19 18 16 15 12 13 13 14 13 12 11 12 9 13 13 23 24 26 26 28 27 26 25 24
13 11 13 13 13 13 14 14 13 13 16 14 13 14 13 13 12 13 13 13 11 12 11 8 5 7 6 6 4 3 4 2 2 2 4 5 6 5 5 5 5 6 12 16 17 17 17 19 19 19 19 18 17 16 13 13 13 14 14 12 11 11 11 13 11 18 25 24 27 27 26 25 24 24
11 12 12 12 12 12 13 14 14 14 16 15 14 15 14 12 12 14 14 13 12 10 9 7 6 5 7 5 3 3 4 4 3 2 2 2 3 5 4 4 4 3 4 5 8 10 11 14 18 18 17 18 17 16 15 13 15 13 12 14 12 11 12 10 14 11 21 25 24 25 24 23 23 23
11 11 11 12 11 12 12 14 15 15 16 14 16 15 12 12 13 14 13 12 12 9 6 6 7 6 4 4 5 1 3 4 4 6 4 3 2 3 6 5 1 3 4 6 11 11 11 12 11 15 16 17 17 15 16 14 14 13 13 13 15 14 14 13 13 12 10 15 19 21 22 24 23 22
11 11 11 10 11 12 12 13 14 15 15 14 15 12 11 12 14 14 13 11 9 8 5 5 5 4 3 3 4 2 2 2 2 4 4 7 5 4 2 2 6 3 4 5 5 6 7 8 10 13 16 18 17 16 14 16 14 14 13 12 14 14 15 15 15 16 11 11 13 13 19 22 22 22
12 13 12 11 12 17 23 26 23 21 21 15 11 11 12 13 13 14 13 11 9 9 8 4 3 3 2 4 5 6 5 6 6 5 3 4 4 5 4 2 2 2 5 4 5 5 7 7 7 7 7 10 14 14 15 11 15 14 14 14 12 13 14 14 16 17 15 12 13 16 12 17 21 22
13 13 13 13 23 24 25 25 25 25 26 22 15 14 12 13 12 12 11 10 10 10 10 8 4 4 5 5 6 6 4 4 2 3 4 5 4 4 4 2 1 0 5 5 6 3 2 6 5 6 8 7 10 9 9 9 10 11 14 15 15 14 13 14 14 13 13 14 14 16 18 14 19 22
14 13 14 12 16 19 20 20 26 26 25 21 23 23 21 17 13 11 11 11 10 10 9 8 9 8 6 4 4 4 2 4 6 7 5 6 5 7 8 6 0 0 4 4 5 4 0 5 7 6 6 5 6 8 9 15 13 11 12 13 14 16 14 13 13 13 9 10 13 16 17 20 17 17
13 14 13 14 13 13 17 19 17 19 18 21 21 20 19 18 19 19 13 11 10 10 9 9 8 7 7 7 4 3 1 2 4 4 5 6 7 7 7 4 5 4 4 5 5 4 1 2 5 5 5 5 5 7 9 13 16 17 14 12 12 13 14 14 14 13 12 11 12 14 17 16 16 17
14 14 14 14 13 12 22 18 14 12 13 17 21 20 19 18 20 20 20 18 13 9 9 8 8 8 9 8 6 5 4 1 4 3 3 4 5 4 5 4 3 3 4 6 4 4 1 3 5 5 4 4 3 4 6 10 13 15 15 13 12 11 12 14 16 17 16 14 13 15 16 18 18 16
14 15 15 15 14 14 14 15 15 15 12 14 14 14 12 12 15 18 19 19 19 14 9 8 8 9 8 7 8 7 5 0 2 4 4 4 4 3 3 1 3 2 3 6 5 3 2 2 4 5 3 4 4 3 4 8 10 12 13 13 13 13 14 14 16 17 17 17 14 15 17 18 19 20
14 15 14 15 16 13 14 16 22 17 14 14 13 14 14 13 13 11 12 13 12 12 10 9 8 9 9 7 8 8 7 5 3 1 2 3 4 4 3 4 3 3 1 1 2 6 3 1 4 3 4 3 5 5 5 9 10 12 12 14 15 15 15 15 16 17 18 17 14 13 15 17 19 22
13 14 15 15 16 13 14 22 29 25 16 14 15 15 14 14 13 10 12 17 17 14 11 10 10 10 14 17 15 15 13 9 7 2 4 5 4 5 3 3 1 2 1 2 1 4 3 3 4 2 2 3 3 3 4 7 12 12 13 13 15 17 16 15 16 16 17 17 15 13 12 12 14 16
13 13 16 17 15 13 15 24 28 28 22 14 17 15 15 14 12 12 13 17 18 20 20 20 21 23 24 22 23 24 26 18 12 4 4 4 2 4 4 2 2 1 1 2 2 3 5 3 3 4 2 2 3 3 4 4 9 13 13 14 14 15 16 16 16 16 17 18 17 15 13 12 11 12
12 15 24 24 16 15 16 26 27 28 20 14 16 16 16 16 16 14 15 13 13 19 17 19 21 21 24 23 21 22 24 23 16 10 11 7 2 3 2 3 2 2 2 1 1 2 2 4 2 4 2 2 2 1 1 2 5 8 10 13 13 13 14 15 15 15 15 16 17 17 15 14 12 8
11 13 15 26 24 22 23 28 27 28 23 15 16 15 16 16 15 14 15 15 16 17 17 16 17 16 19 15 13 13 20 21 17 11 10 9 8 3 4 4 3 3 2 1 0 3 1 4 1 3 4 2 0 1 2 3 3 5 5 7 8 12 13 14 14 15 14 14 14 15 16 15 11 6
12 13 13 17 25 29 29 27 29 27 28 18 15 14 13 13 16 15 13 15 14 13 12 12 11 11 12 13 13 12 12 13 13 11 10 10 10 8 4 4 4 3 2 3 0 2 1 1 2 1 2 4 4 1 1 2 2 3 5 6 6 8 10 11 10 13 13 13 13 13 13 14 14 8
12 12 13 12 24 28 29 27 28 28 27 25 16 16 14 15 17 17 12 15 18 11 11 10 10 11 10 10 9 10 10 10 11 11 10 9 9 9 8 5 4 4 3 1 1 1 2 2 3 1 3 3 2 4 1 1 2 2 3 5 5 5 6 7 5 7 9 12 12 12 12 14 16 12
11 11 13 12 22 27 28 27 27 29 27 28 17 20 26 25 24 15 11 10 10 10 10 9 10 11 12 12 11 11 10 10 12 11 10 10 10 8 7 5 4 4 3 3 2 2 3 1 2 3 2 3 3 2 4 1 1 1 2 2 3 4 5 6 6 6 6 6 7 9 10 14 14 15
11 11 13 14 25 25 27 26 27 27 29 22 21 30 28 27 26 19 11 11 12 12 11 12 11 12 12 12 12 12 12 11 12 11 10 11 10 9 9 7 4 1 2 3 2 1 1 2 2 3 2 1 4 2 2 3 1 1 2 1 2 3 3 5 5 5 6 6 6 10 11 13 14 13
11 10 13 15 24 24 24 25 25 25 26 21 28 28 29 26 22 13 13 12 12 12 13 14 12 11 11 10 10 11 11 11 12 11 10 10 10 9 9 8 6 4 2 2 2 1 2 1 2 1 3 3 3 4 4 2 2 3 4 1 2 1 2 4 5 4 5 6 6 7 7 7 7 8
11 15 21 23 22 23 23 26 23 19 23 29 27 28 28 22 12 13 13 13 12 14 14 11 10 10 11 10 10 11 12 11 10 9 8 8 8 9 8 6 4 5 3 2 1 0 1 1 0 2 2 2 2 1 3 3 3 3 4 5 2 1 1 1 4 5 5 6 7 8 8 8 8 7
19 20 21 23 24 22 21 15 13 12 15 24 26 26 25 14 14 13 14 13 14 13 12 11 11 11 10 11 11 10 9 8 9 10 9 10 12 11 10 9 8 6 4 2 1 0 1 1 1 2 2 2 2 3 3 4 2 3 4 4 3 4 1 2 2 3 5 5 6 6 5 7 9 9
12 14 16 14 16 14 19 17 17 17 18 16 16 13 14 13 13 13 13 13 12 11 11 10 10 9 9 9 9 13 11 10 10 9 9 7 8 8 8 6 6 7 6 5 3 1 0 1 1 2 1 1 1 2 3 2 4 4 4 4 5 5 4 3 2 2 3 2 3 4 5 6 6 6
9 9 10 11 7 8 10 12 12 13 12 12 13 13 13 13 13 16 17 15 9 10 10 8 9 9 10 11 12 11 9 10 10 10 9 10 9 9 8 6 7 7 8 7 5 3 1 0 1 1 2 2 2 1 2 2 4 4 5 4 4 2 4 7 6 4 3 4 3 3 3 5 6 6
6 6 11 14 15 15 14 14 14 14 14 13 12 14 14 13 13 13 13 15 14 13 12 13 12 12 11 12 11 11 9 12 11 11 10 10 9 8 7 6 6 8 9 9 8 5 2 1 0 1 2 2 2 2 3 2 2 4 5 5 4 3 3 4 5 6 5 5 5 4 4 3 3 5
7 10 10 11 12 13 13 13 13 14 13 14 14 13 15 13 13 13 12 12 12 12 11 12 12 13 12 12 12 12 12 10 9 11 12 9 9 8 9 8 7 7 7 8 8 8 3 1 0 0 1 1 0 2 3 3 3 4 4 5 5 5 3 4 4 6 7 7 7 6 5 4 3 2
12 11 12 10 10 10 10 11 11 11 12 13 12 12 12 11 13 13 12 12 12 12 12 11 10 10 12 12 12 13 12 9 11 10 10 9 9 8 8 8 8 8 8 8 9 9 7 2 1 1 1 0 0 1 2 2 3 3 3 3 4 5 4 4 5 6 6 4 5 7 5 4 4 3
10 9 9 9 10 9 10 10 10 10 10 11 11 11 12 12 12 13 12 13 11 11 11 12 12 12 12 12 11 12 11 11 10 11 12 12 11 10 8 7 8 8 8 7 8 9 9 6 2 2 3 2 2 2 3 4 4 4 5 4 3 4 3 4 4 5 6 6 6 6 7 7 7 5
8 8 8 8 8 8 9 9 9 9 9 9 10 10 10 11 12 11 11 12 10 10 11 11 10 11 11 11 11 11 11 12 12 12 11 11 9 9 9 9 9 8 8 8 8 9 9 8 3 3 3 2 4 6 3 2 3 4 5 5 4 4 5 5 5 5 5 5 5 6 6 5 5 6
8 7 7 7 7 7 7 7 8 8 8 8 8 8 8 9 9 10 10 10 12 11 11 11 11 11 11 11 11 10 10 10 10 10 11 11 10 11 10 10 10 9 9 8 8 8 9 9 9 7 4 2 5 4 3 1 1 3 6 5 6 5 4 6 5 6 5 4 5 3 3 3 3 4
7 7 7 7 7 7 7 7 7 8 8 8 8 9 9 9 9 9 11 10 11 11 10 11 11 11 11 12 11 11 11 11 11 11 11 10 9 10 10 11 10 9 9 9 8 7 8 8 8 7 6 6 5 4 4 2 4 2 6 9 6 6 5 6 6 5 5 5 2 4 4 3 6 7
6 5 5 5 6 6 6 6 6 6 7 7 7 7 8 9 9 9 10 11 11 10 9 10 11 11 10 11 11 10 9 10 10 10 11 10 10 10 10 10 9 10 9 9 9 9 8 8 8 8 9 8 9 9 8 8 2 2 0 3 4 6 6 5 5 6 4 3 5 4 3 2 2 1
6 6 6 5 5 5 6 6 6 6 6 6 6 7 7 7 8 8 9 10 10 10 10 10 10 10 10 11 11 11 11 10 10 10 11 10 11 12 13 13 8 9 9 9 9 9 9 9 12 19 15 11 10 9 6 4 1 1 2 4 5 5 7 8 6 6 5 5 6 6 6 5 4 2
5 5 6 5 5 6 5 6 6 6 6 6 6 7 7 7 6 11 9 10 9 9 8 9 9 9 10 9 9 10 10 10 11 11 11 11 11 11 12 10 10 11 10 10 11 10 10 11 12 11 9 8 7 3 4 4 4 2 2 2 2 3 5 7 7 7 7 8 6 4 4 3 3 2
5 5 5 6 5 5 5 6 6 6 6 6 6 6 6 7 6 8 8 9 8 8 9 9 9 9 9 8 8 8 8 9 10 10 10 10 10 11 11 11 10 10 10 9 9 10 10 10 10 10 8 6 6 6 3 1 1 3 2 1 2 1 2 4 6 5 5 10 12 9 7 6 5 4
5 5 5 5 5 6 5 6 6 5 5 6 6 6 6 7 7 7 7 7 8 8 8 8 8 9 9 9 8 7 7 8 9 10 10 10 10 9 10 10 11 10 10 10 11 10 10 10 9 9 8 7 8 7 6 5 2 1 2 1 0 2 3 2 1 1 2 3 6 5 5 8 8 9
5 5 5 5 5 5 5 6 5 6 6 6 5 6 6 6 6 6 6 6 7 8 8 8 8 8 8 8 9 10 9 10 9 7 8 8 8 9 9 9 9 9 9 10 11 11 10 10 9 8 6 7 7 7 7 6 5 4 2 1 2 3 2 2 4 4 4 5 7 9 8 7 6 0
Wind_Direction
303 303 303 295 289 283 282 286 292 289 287 286 285 282 280 281 282 290 289 283 289 289 257 285 275 235 241 236 225 220 219 221 215 212 217 218 219 215 217 220 222 220 218 214 214 211 214 215 213 217 219 208 202 196 193 215 216 219 208 230 299 258 216 198 198 193 190 190 186 184 188 189 188 187
315 309 304 305 298 286 287 295 294 290 287 287 287 285 279 274 272 274 279 287 281 284 278 258 281 277 254 244 235 217 223 221 211 214 213 216 218 214 212 216 219 219 215 213 212 209 209 212 214 218 218 216 207 196 198 199 207 213 215 214 284 284 217 195 191 195 192 191 187 187 184 182 184 191
322 318 314 309 302 301 300 298 293 294 300 295 289 285 280 273 267 268 275 283 281 259 274 269 259 271 261 241 236 229 228 221 211 211 213 217 216 212 212 212 217 219 214 209 209 207 205 206 212 216 218 221 212 203 196 194 200 207 208 201 252 294 232 197 193 195 191 192 187 178 180 181 183 195
321 319 315 311 308 309 309 306 308 305 296 292 288 283 280 272 269 274 275 274 281 271 252 270 275 275 280 267 239 240 230 227 210 210 214 218 215 212 218 214 215 221 217 208 206 206 206 203 206 212 217 220 217 206 198 195 189 195 203 198 215 273 259 207 200 190 188 185 181 180 180 182 187 194
320 325 323 313 309 314 314 312 306 298 295 293 289 289 293 296 293 284 279 280 283 277 244 253 259 262 257 267 221 233 231 226 213 213 219 216 209 208 211 212 215 218 221 215 207 205 205 204 203 207 211 217 219 214 201 193 185 190 192 179 191 232 270 226 202 196 184 185 183 180 181 184 192 194
317 325 327 314 310 313 309 308 304 299 300 302 305 303 298 294 291 284 280 283 281 274 259 248 252 260 246 261 222 223 229 232 200 211 218 215 206 203 203 209 213 215 218 218 211 206 205 206 204 207 207 214 221 222 201 191 185 185 192 183 185 220 237 266 207 202 184 182 182 183 183 188 192 192
319 328 328 317 314 312 314 314 311 311 308 306 302 300 296 289 284 282 275 278 283 275 262 239 261 261 255 239 247 224 221 213 194 210 214 207 201 203 198 205 213 211 214 214 212 207 204 204 203 205 207 209 218 224 206 200 186 186 197 190 183 205 236 257 243 194 189 180 183 185 185 188 189 188
329 334 328 321 317 322 322 317 312 308 307 303 302 297 292 288 287 288 284 277 278 281 268 244 250 261 252 256 243 229 199 189 191 208 213 198 198 198 196 203 209 208 210 211 210 209 205 203 203 205 209 207 209 216 210 196 191 187 195 189 182 201 209 237 268 205 187 181 183 184 187 189 187 186
330 331 331 326 328 325 318 312 308 309 307 305 302 297 293 293 297 297 293 287 284 288 273 264 244 251 249 246 247 209 164 142 172 199 201 198 201 195 197 197 207 204 205 209 207 207 206 204 205 206 208 208 206 208 211 200 202 192 183 182 191 204 203 218 248 225 184 186 182 184 185 187 187 186
332 331 330 325 320 315 310 304 302 305 305 305 301 299 295 301 304 300 296 287 286 283 278 264 262 238 242 254 246 213 177 150 143 149 197 197 196 184 192 203 190 180 181 192 210 207 204 202 202 207 209 210 208 204 209 207 206 206 185 180 189 210 216 209 229 253 197 180 184 182 182 184 185 186
336 333 326 318 311 306 300 298 304 308 308 306 303 301 305 310 309 306 298 296 291 280 270 252 248 258 242 234 257 266 197 174 161 164 156 185 208 182 176 183 173 170 185 207 199 194 191 191 196 204 209 210 211 207 205 216 209 203 196 189 187 197 217 202 227 233 230 189 183 181 181 181 183 184
338 333 323 314 308 298 295 303 309 310 309 306 302 306 322 316 315 314 311 309 307 307 287 250 251 244 266 270 255 234 129 178 193 176 165 184 173 174 147 181 156 160 163 170 187 201 189 192 196 200 207 208 206 211 209 215 216 202 201 192 193 192 206 198 206 225 226 200 190 197 187 182 180 181
339 332 325 314 310 315 318 318 317 313 311 308 310 327 325 321 322 320 319 318 320 333 322 272 248 262 244 247 234 220 203 196 197 188 151 171 169 155 122 59 72 129 159 157 154 177 173 167 175 184 198 209 206 207 210 217 218 213 201 196 193 193 196 195 199 203 210 212 195 189 204 190 180 178
339 331 323 314 319 321 319 315 313 315 314 319 340 332 325 326 323 321 315 325 340 339 339 335 312 305 274 243 225 228 215 188 161 143 178 164 169 136 121 104 2 158 131 141 147 153 149 156 157 170 194 198 193 197 202 218 218 214 212 202 193 200 201 197 200 196 193 199 200 195 189 201 189 179
337 332 321 314 318 318 312 313 318 318 316 341 343 335 330 328 327 321 323 341 346 341 333 336 8 2 338 305 253 226 238 194 186 185 181 166 157 168 167 172 209 306 139 122 125 143 126 147 163 171 178 183 188 194 195 202 211 211 207 209 199 197 205 202 215 211 205 193 204 198 196 185 196 194
334 330 323 323 321 316 315 321 318 310 333 349 338 332 333 335 337 341 344 344 336 338 333 340 351 343 338 328 355 352 229 191 148 158 173 172 175 175 181 177 171 203 148 124 125 139 50 125 145 165 179 173 185 195 195 190 198 217 216 203 196 194 200 204 212 218 212 210 202 208 195 192 189 189
336 331 325 323 316 316 323 328 315 326 347 344 339 338 341 341 344 344 345 346 340 327 323 330 327 332 329 336 339 341 318 233 185 158 132 151 163 172 163 170 120 163 168 121 119 143 186 126 157 179 182 152 157 176 192 191 192 197 208 206 198 198 203 204 212 214 216 211 211 204 205 192 188 189
339 334 330 326 325 322 330 331 336 350 354 345 341 343 344 342 341 342 344 341 337 335 327 316 320 319 322 334 340 340 347 76 200 171 164 151 145 149 159 111 97 125 155 158 136 99 144 145 131 175 205 163 150 163 181 186 190 189 192 193 194 196 202 207 211 216 219 220 213 209 202 197 195 191
344 339 332 328 326 326 342 338 351 357 359 348 344 345 348 345 341 340 342 340 335 336 332 322 313 337 347 358 5 1 0 2 342 270 130 143 125 116 87 59 56 78 44 54 124 163 149 146 126 163 155 158 172 164 171 182 186 190 189 188 189 196 199 202 206 206 211 213 212 212 212 203 199 193
348 340 336 333 328 341 344 349 356 3 5 350 348 352 350 346 343 343 340 334 334 339 342 347 2 6 10 21 27 24 21 10 360 23 103 91 105 115 110 113 41 89 348 37 82 109 128 179 128 148 102 108 153 164 166 186 181 187 190 191 188 187 195 201 203 202 203 204 203 202 199 200 197 201
347 343 342 343 327 351 350 357 1 6 14 354 354 353 352 349 348 346 341 339 337 348 354 4 10 13 13 14 18 23 21 20 8 17 82 76 114 122 121 103 85 71 46 330 55 108 118 158 132 111 88 130 134 158 186 182 187 182 188 191 192 187 186 194 201 203 201 201 202 198 194 190 188 186
349 346 347 348 338 358 357 2 5 10 16 4 358 356 353 356 356 352 347 340 340 347 354 5 10 13 12 8 7 15 17 18 19 25 30 1 1 67 75 103 87 84 53 269 340 66 114 127 106 104 88 72 34 126 122 148 174 182 181 187 190 190 187 187 191 196 199 198 198 199 189 187 180 166
348 344 345 346 348 6 3 6 8 13 17 13 2 2 356 0 2 357 346 346 350 352 352 356 358 2 3 1 359 359 7 16 17 16 11 9 11 35 65 87 92 73 30 317 305 92 62 111 183 121 111 118 171 12 117 110 133 148 160 171 182 189 187 188 187 189 193 192 193 193 184 166 153 138
346 344 342 342 349 6 7 9 10 15 16 19 6 8 6 1 2 354 349 354 358 347 353 348 354 358 357 360 360 356 360 7 9 5 360 1 8 12 17 46 44 67 55 325 337 100 59 103 139 39 119 139 161 201 57 96 89 121 138 154 162 185 183 181 184 186 185 190 190 187 182 163 152 150
347 340 346 339 353 4 8 11 10 15 16 17 14 14 15 13 7 1 356 353 1 356 356 349 358 356 359 358 357 358 360 1 356 351 351 351 355 4 3 14 28 55 24 311 232 62 126 129 138 83 29 57 62 102 357 91 78 109 144 151 156 162 155 172 163 173 178 179 182 182 181 174 165 158
347 339 349 342 355 4 10 12 12 14 17 16 17 14 14 12 14 10 358 356 358 3 2 3 5 4 3 356 353 354 356 354 346 343 339 342 342 344 352 350 7 24 37 334 180 126 91 74 153 124 110 95 27 72 102 57 24 43 99 125 145 160 155 153 151 161 163 167 173 178 180 180 179 170
344 337 351 349 357 5 11 12 12 12 16 16 16 16 14 12 13 13 8 4 8 11 10 13 10 6 3 355 352 350 348 342 338 336 332 333 332 333 343 355 356 352 331 348 33 27 84 102 128 142 133 100 105 72 97 127 185 43 79 104 108 118 135 138 158 157 155 155 164 171 171 177 178 177
347 342 355 356 3 7 12 12 13 9 14 14 14 17 15 13 11 11 11 14 13 12 16 17 9 3 357 351 348 347 335 331 328 327 327 328 330 335 337 342 348 357 355 333 21 93 39 83 117 135 129 152 138 143 135 40 70 133 152 64 53 94 140 152 143 128 136 141 142 155 152 166 175 167
353 356 2 4 7 8 12 11 11 9 10 12 13 15 14 11 8 13 15 11 10 19 16 8 2 358 355 347 335 328 324 322 322 331 332 330 331 338 340 339 339 347 339 346 47 110 125 127 109 95 105 147 147 127 114 148 145 157 150 137 177 205 177 165 152 149 146 145 156 160 165 162 159 164
2 4 8 8 11 10 11 11 9 5 6 8 12 13 14 10 11 11 14 10 14 13 6 2 2 352 339 346 335 323 324 342 353 347 342 344 351 352 352 351 351 352 352 326 354 77 114 128 137 133 134 134 166 159 145 120 96 139 153 160 133 59 34 144 167 158 153 164 165 157 153 154 165 163
358 2 8 10 9 9 10 15 15 16 9 9 9 7 12 10 9 10 16 13 5 6 2 357 354 344 344 336 345 1 353 358 354 350 337 334 341 337 340 337 345 353 352 350 353 355 166 138 126 133 142 156 114 162 169 130 119 139 161 153 152 170 186 159 160 172 183 149 109 114 132 149 157 172
349 351 358 7 7 3 11 14 14 15 12 11 8 6 8 7 7 9 13 16 14 12 4 354 352 353 353 357 355 346 346 358 354 350 355 355 343 344 340 1 2 354 343 349 342 345 10 360 159 188 179 164 188 163 95 136 153 157 159 174 165 85 132 172 179 184 161 125 126 165 182 175 172 175
341 354 14 16 14 15 10 9 9 6 4 7 7 5 7 5 2 5 8 11 8 1 1 3 2 360 357 0 356 352 352 1 351 354 357 356 353 342 1 10 357 358 348 341 341 332 345 349 9 221 234 201 177 142 142 160 175 156 161 170 169 154 170 182 168 159 139 146 178 185 193 215 207 185
21 24 23 20 14 10 10 8 7 4 0 359 360 2 3 4 3 6 6 8 2 357 2 358 360 360 359 359 1 1 360 340 350 357 6 354 351 1 3 357 353 349 346 337 338 337 333 8 61 33 20 18 57 150 173 195 170 166 170 160 170 178 185 161 157 158 167 177 169 163 190 211 222 205
30 20 21 14 14 14 9 11 4 1 360 359 357 356 356 1 2 1 2 4 357 357 358 359 359 360 3 360 357 1 352 343 349 352 0 4 4 7 355 354 348 347 344 338 334 336 327 316 90 96 90 153 312 302 182 180 153 152 126 157 177 174 165 174 152 158 164 156 157 177 177 177 197 211
33 23 20 14 13 7 11 7 1 1 1 357 356 351 355 359 358 358 358 358 356 355 360 2 360 2 0 356 354 354 350 347 345 357 1 3 358 357 356 354 346 338 337 332 330 325 326 312 207 178 168 177 184 223 240 221 171 155 163 176 183 175 153 154 159 153 164 169 172 167 175 188 194 182
28 22 19 16 8 8 6 1 359 359 357 355 355 354 354 352 349 348 347 350 358 2 3 1 0 2 359 355 350 348 353 358 356 356 355 351 350 356 349 349 348 342 337 333 327 323 330 328 283 206 187 207 200 222 221 25 264 241 166 167 173 184 160 149 145 160 185 171 167 182 182 165 179 186
25 12 14 10 8 0 359 357 357 357 357 356 352 349 352 347 342 341 344 358 3 1 360 2 359 0 0 358 356 351 347 349 353 356 353 350 351 358 351 341 340 340 337 323 329 335 338 356 5 355 337 238 204 213 213 296 160 243 209 169 168 178 160 146 161 173 180 181 177 178 108 146 177 183
18 13 8 4 357 355 355 354 355 352 350 351 354 351 349 346 346 347 357 360 359 358 357 1 2 0 357 357 358 355 352 350 357 357 352 348 346 349 345 344 338 339 338 333 335 344 353 4 4 2 5 350 332 332 324 211 224 227 187 194 168 153 178 170 172 168 162 166 128 82 57 58 65 67
6 4 358 355 350 348 345 344 348 349 347 348 348 344 351 347 346 346 354 357 357 356 356 357 354 356 359 359 356 354 356 359 357 352 347 341 342 346 345 344 338 338 336 333 340 344 350 348 346 341 327 302 283 277 282 285 315 3 197 215 192 169 167 156 161 161 163 155 132 126 136 75 107 4
357 357 351 348 340 342 343 340 339 337 342 341 340 346 348 342 343 349 354 353 351 351 355 355 356 358 357 355 357 356 354 353 356 351 346 344 345 348 345 345 342 346 340 338 342 337 333 329 315 312 304 285 275 267 259 223 211 225 177 225 217 208 164 173 168 158 152 155 158 163 162 162 168 111
352 344 335 338 343 334 335 333 335 336 336 339 340 340 341 345 339 350 350 348 350 352 351 354 354 354 354 354 354 355 357 353 352 350 347 344 342 342 346 352 348 345 347 338 334 319 312 315 315 313 306 302 294 260 215 206 201 188 214 252 277 237 203 196 184 175 156 149 152 137 113 58 54 125
347 339 339 331 333 330 332 333 331 333 330 332 334 336 336 340 339 348 351 352 351 353 353 351 351 351 350 347 352 351 349 352 355 347 344 345 346 343 344 345 342 337 332 323 314 314 314 319 324 325 321 312 317 318 295 233 207 188 192 137 207 191 232 226 218 206 185 182 176 171 167 159 142 184
339 338 329 329 327 328 327 331 329 329 330 328 327 331 335 341 345 345 345 345 348 348 347 347 346 349 347 345 344 346 352 352 352 347 344 343 341 340 339 335 335 336 334 331 326 324 322 325 329 332 331 332 332 330 332 337 332 227 189 200 98 120 194 172 161 207 246 283 269 272 225 187 180 172
332 328 325 324 324 320 321 325 325 328 327 326 332 334 334 334 335 335 338 340 341 342 345 347 344 345 342 342 349 349 347 348 346 340 338 335 337 336 336 336 335 336 337 338 334 329 331 330 329 332 327 321 325 313 308 315 319 330 312 187 209 211 198 140 153 180 211 243 236 219 224 232 258 20